Flag for U.S.A. Weather past 2 weeks in Laredo, Texas, U.S.A.

74 °F

Mostly cloudy.

Feels Like: 73 °F
Forecast: 69 / 81 °F
Wind: 6 mph from East

Location: Cotulla-La Salle County Airport

Current Time: Nov 27, 2015 at 4:38:14 AM

Latest Report: Nov 27, 2015 at 3:53 AM

Visibility: 10 mi

Pressure: 30.02 "Hg

Humidity: 88%

Dew point: 70 °F

Location of LaredoLocation

Historic Weather in Laredo — Graph


Laredo temperature yesterday

Maximum temperature yesterday: 83 °F (at 12:53 PM)
Minimum temperature yesterday: 70 °F (at 12:53 AM)
Average temperature yesterday: 75 °F

Past Weeks' High & Low Weather Summary

High83 °F (Nov 26, 12:53 PM)96% (Nov 21, 7:53 AM)30.38 "Hg (Nov 21, 7:53 AM)
Low35 °F (Nov 22, 6:53 AM)18% (Nov 17, 3:53 PM)29.51 "Hg (Nov 17, 4:53 AM)
Average65 °F61%30.05 "Hg
* Reported Nov 12 2:53 AM — Nov 27 2:53 AM, Laredo, Weather by CustomWeather, © 2015

Note: Actual official high and low records may vary slightly from our data, if they occured in-between our weather recording intervals... More about our weather records


Laredo weather history for previous 24 hours

Time TempWeatherWind HumidityBarometerVisibility
2:53 AM
Fri, Nov 27
75 °FPartly cloudy.12 mph85%30.02 "Hg10 mi
1:53 AM75 °FOvercast.9 mph85%30.02 "Hg10 mi
12:53 AM75 °FMostly cloudy.10 mph85%30.03 "Hg10 mi
11:53 PM
Thu, Nov 26
76 °FOvercast.13 mph82%30.03 "Hg10 mi
10:53 PM76 °FOvercast.17 mph82%30.03 "Hg10 mi
9:53 PM75 °FPassing clouds.16 mph85%30.03 "Hg10 mi
8:53 PM76 °FPassing clouds.14 mph82%30.02 "Hg10 mi
7:53 PM76 °FOvercast.17 mph82%30.01 "Hg10 mi
6:53 PM76 °FClear.14 mph82%30.00 "Hg10 mi
5:53 PM78 °FClear.16 mph76%29.98 "Hg10 mi
4:53 PM80 °FSunny.16 mph69%29.97 "Hg10 mi
3:53 PM81 °FBroken clouds.17 mph67%29.97 "Hg10 mi
2:53 PM81 °FBroken clouds.15 mph69%29.97 "Hg10 mi
1:53 PM83 °FPartly sunny.12 mph59%29.99 "Hg10 mi
12:53 PM83 °FBroken clouds.14 mph61%30.01 "Hg10 mi
11:53 AM77 °FRain. Mostly cloudy.7 mph82%30.05 "Hg10 mi
10:53 AM78 °FMostly cloudy.14 mph76%30.05 "Hg10 mi
9:53 AM75 °FMostly cloudy.13 mph82%30.06 "Hg10 mi
8:53 AM72 °FMostly cloudy.10 mph91%30.05 "Hg10 mi
7:53 AM71 °FLow clouds.13 mph93%30.03 "Hg10 mi
6:53 AM71 °FLow clouds.10 mph90%30.02 "Hg10 mi
6:01 AM71 °FLow clouds.10 mph90%30.04 "Hg10 mi
4:53 AM71 °FLight rain. Overcast.7 mph90%30.01 "Hg10 mi
Weather by CustomWeather, © 2015

See weather overviewHow to use our weather pages